Time,TemperatureF,DewpointF,PressureIn,WindDirection,WindDirectionDegrees,WindSpeedMPH,WindSpeedGustMPH,Humidity,HourlyPrecipIn,Conditions,Clouds,dailyrainin,SoftwareType,DateUTC
2013-07-29 00:00:00,62.5,59.5,30.05,East,84,0.0,0.0,90,0.00,,,0.00,Wunderground v.1.15,2013-07-29 04:00:00,
2013-07-29 00:10:00,62.4,59.4,30.05,East,84,0.0,0.0,90,0.00,,,0.00,Wunderground v.1.15,2013-07-29 04:10:00,
2013-07-29 00:20:00,62.2,59.5,30.05,ENE,61,0.0,0.0,91,0.00,,,0.00,Wunderground v.1.15,2013-07-29 04:20:00,
2013-07-29 00:30:00,62.1,59.4,30.05,ENE,60,0.0,0.0,91,0.00,,,0.00,Wunderground v.1.15,2013-07-29 04:30:00,
2013-07-29 00:40:00,62.1,59.4,30.05,NE,56,0.0,0.0,91,0.00,,,0.00,Wunderground v.1.15,2013-07-29 04:40:00,
2013-07-29 00:50:00,62.1,59.4,30.05,ENE,57,0.0,0.0,91,0.00,,,0.00,Wunderground v.1.15,2013-07-29 04:50:00,
2013-07-29 01:00:00,62.0,59.3,30.05,ENE,57,0.0,0.0,91,0.00,,,0.00,Wunderground v.1.15,2013-07-29 05:00:00,
2013-07-29 01:10:00,61.9,59.2,30.05,NE,55,0.0,0.0,91,0.00,,,0.00,Wunderground v.1.15,2013-07-29 05:10:00,
2013-07-29 01:20:00,61.7,59.0,30.04,NW,321,0.0,0.0,91,0.00,,,0.00,Wunderground v.1.15,2013-07-29 05:20:00,
2013-07-29 01:30:00,61.6,59.3,30.04,NE,39,0.0,0.0,92,0.00,,,0.00,Wunderground v.1.15,2013-07-29 05:30:00,
2013-07-29 01:40:00,61.6,59.3,30.04,NE,39,0.0,0.0,92,0.00,,,0.00,Wunderground v.1.15,2013-07-29 05:40:00,
2013-07-29 01:50:00,61.4,59.1,30.04,ENE,75,0.0,0.0,92,0.00,,,0.00,Wunderground v.1.15,2013-07-29 05:50:00,
2013-07-29 02:00:00,61.3,59.0,30.03,East,92,0.0,0.0,92,0.00,,,0.00,Wunderground v.1.15,2013-07-29 06:00:00,
2013-07-29 02:10:00,61.2,58.9,30.03,East,92,0.0,0.0,92,0.00,,,0.00,Wunderground v.1.15,2013-07-29 06:10:00,
2013-07-29 02:20:00,61.0,58.7,30.04,ESE,123,0.0,0.0,92,0.00,,,0.00,Wunderground v.1.15,2013-07-29 06:20:00,
2013-07-29 02:30:00,60.9,58.6,30.03,NE,38,0.0,0.0,92,0.00,,,0.00,Wunderground v.1.15,2013-07-29 06:30:00,
2013-07-29 02:40:00,60.8,58.5,30.03,NE,38,0.0,0.0,92,0.00,,,0.00,Wunderground v.1.15,2013-07-29 06:40:00,
2013-07-29 02:50:00,60.7,58.4,30.03,NE,40,0.0,0.0,92,0.00,,,0.00,Wunderground v.1.15,2013-07-29 06:50:00,
2013-07-29 03:00:00,60.7,58.4,30.03,NE,40,0.0,0.0,92,0.00,,,0.00,Wunderground v.1.15,2013-07-29 07:00:00,
2013-07-29 03:10:00,60.5,58.2,30.04,NE,40,0.0,0.0,92,0.00,,,0.00,Wunderground v.1.15,2013-07-29 07:10:00,
2013-07-29 03:20:00,60.5,58.2,30.05,NE,40,0.0,0.0,92,0.00,,,0.00,Wunderground v.1.15,2013-07-29 07:20:00,
2013-07-29 03:30:00,60.4,58.1,30.04,NE,38,0.0,0.0,92,0.00,,,0.00,Wunderground v.1.15,2013-07-29 07:30:00,
2013-07-29 03:40:00,60.4,58.1,30.04,NE,46,0.0,0.0,92,0.00,,,0.00,Wunderground v.1.15,2013-07-29 07:40:00,
2013-07-29 03:50:00,60.2,57.9,30.04,NE,46,0.0,0.0,92,0.00,,,0.00,Wunderground v.1.15,2013-07-29 07:50:00,
2013-07-29 04:00:00,60.2,58.2,30.04,NE,47,0.0,0.0,93,0.00,,,0.00,Wunderground v.1.15,2013-07-29 08:00:00,
2013-07-29 04:10:00,60.0,58.0,30.04,NE,47,0.0,0.0,93,0.00,,,0.00,Wunderground v.1.15,2013-07-29 08:10:00,
2013-07-29 04:20:00,59.9,57.9,30.03,NE,46,0.0,0.0,93,0.00,,,0.00,Wunderground v.1.15,2013-07-29 08:20:00,
2013-07-29 04:30:00,59.7,57.7,30.03,NE,46,0.0,0.0,93,0.00,,,0.00,Wunderground v.1.15,2013-07-29 08:30:00,
2013-07-29 04:40:00,59.5,57.5,30.03,NE,46,0.0,0.0,93,0.00,,,0.00,Wunderground v.1.15,2013-07-29 08:40:00,
2013-07-29 04:50:00,59.3,57.6,30.03,NE,47,0.0,0.0,94,0.00,,,0.00,Wunderground v.1.15,2013-07-29 08:50:00,
2013-07-29 05:00:00,59.0,57.0,30.03,NE,47,0.0,0.0,93,0.00,,,0.00,Wunderground v.1.15,2013-07-29 09:00:00,
2013-07-29 05:10:00,59.0,57.3,30.03,NE,47,0.0,0.0,94,0.00,,,0.00,Wunderground v.1.15,2013-07-29 09:10:00,
2013-07-29 05:20:00,59.0,57.3,30.03,NE,52,0.0,0.0,94,0.00,,,0.00,Wunderground v.1.15,2013-07-29 09:20:00,
2013-07-29 05:30:00,59.0,57.3,30.03,NE,45,0.0,0.0,94,0.00,,,0.01,Wunderground v.1.15,2013-07-29 09:30:00,
2013-07-29 05:40:00,59.0,57.6,30.04,NE,55,0.0,0.0,95,0.00,,,0.01,Wunderground v.1.15,2013-07-29 09:40:00,
2013-07-29 05:50:00,59.0,57.6,30.04,NE,55,0.0,0.0,95,0.00,,,0.01,Wunderground v.1.15,2013-07-29 09:50:00,
2013-07-29 06:00:00,59.0,57.6,30.04,ENE,59,0.0,0.0,95,0.00,,,0.01,Wunderground v.1.15,2013-07-29 10:00:00,
2013-07-29 06:10:00,59.0,57.6,30.04,ENE,59,0.0,0.0,95,0.00,,,0.01,Wunderground v.1.15,2013-07-29 10:10:00,
2013-07-29 06:30:00,59.0,57.6,30.04,ENE,59,0.0,0.0,95,0.00,,,0.01,Wunderground v.1.15,2013-07-29 10:30:00,
2013-07-29 06:40:00,58.9,57.5,30.04,ENE,59,0.0,0.0,95,0.00,,,0.01,Wunderground v.1.15,2013-07-29 10:40:00,
2013-07-29 07:01:00,58.9,57.5,30.05,ENE,59,0.0,0.0,95,0.00,,,0.01,Wunderground v.1.15,2013-07-29 11:01:00,
2013-07-29 07:10:00,58.9,57.8,30.04,ENE,59,0.0,0.0,96,0.00,,,0.01,Wunderground v.1.15,2013-07-29 11:10:00,
2013-07-29 07:20:00,59.0,57.9,30.04,ENE,59,0.0,0.0,96,0.00,,,0.01,Wunderground v.1.15,2013-07-29 11:20:00,
2013-07-29 07:30:00,59.0,57.9,30.04,ENE,59,0.0,0.0,96,0.00,,,0.01,Wunderground v.1.15,2013-07-29 11:30:00,
2013-07-29 07:40:00,59.0,57.9,30.04,ENE,60,0.0,0.0,96,0.00,,,0.01,Wunderground v.1.15,2013-07-29 11:40:00,
2013-07-29 07:50:00,59.0,57.9,30.04,ENE,61,0.0,2.0,96,0.00,,,0.01,Wunderground v.1.15,2013-07-29 11:50:00,
2013-07-29 08:00:00,59.0,57.9,30.04,ENE,61,0.0,0.0,96,0.00,,,0.01,Wunderground v.1.15,2013-07-29 12:00:00,
2013-07-29 08:10:00,59.0,57.9,30.05,SSW,195,0.0,0.0,96,0.00,,,0.02,Wunderground v.1.15,2013-07-29 12:10:00,
2013-07-29 08:20:00,58.8,57.7,30.04,ENE,71,0.0,0.0,96,0.07,,,0.03,Wunderground v.1.15,2013-07-29 12:20:00,
2013-07-29 08:30:00,59.0,57.9,30.05,SSE,162,0.0,0.0,96,0.06,,,0.04,Wunderground v.1.15,2013-07-29 12:30:00,
2013-07-29 08:40:00,59.0,57.9,30.05,SSE,159,0.0,0.0,96,0.04,,,0.04,Wunderground v.1.15,2013-07-29 12:40:00,
2013-07-29 08:50:00,59.0,57.9,30.04,SSE,159,0.0,0.0,96,0.13,,,0.07,Wunderground v.1.15,2013-07-29 12:50:00,
2013-07-29 09:10:00,59.0,58.2,30.03,SSE,157,0.0,0.0,97,0.05,,,0.11,Wunderground v.1.15,2013-07-29 13:10:00,
2013-07-29 09:20:00,59.5,58.6,30.03,ESE,119,0.0,0.0,97,0.00,,,0.11,Wunderground v.1.15,2013-07-29 13:20:00,
2013-07-29 09:30:00,59.8,58.9,30.04,ESE,107,0.0,0.0,97,0.00,,,0.11,Wunderground v.1.15,2013-07-29 13:30:00,
2013-07-29 09:40:00,59.5,58.6,30.04,ESE,107,0.0,0.0,97,0.00,,,0.11,Wunderground v.1.15,2013-07-29 13:40:00,
2013-07-29 09:50:00,59.5,58.6,30.04,ESE,107,0.0,0.0,97,0.00,,,0.11,Wunderground v.1.15,2013-07-29 13:50:00,
2013-07-29 10:00:00,59.9,59.0,30.04,ESE,107,0.0,0.0,97,0.00,,,0.11,Wunderground v.1.15,2013-07-29 14:00:00,
2013-07-29 10:10:00,60.3,59.4,30.04,East,83,0.0,0.0,97,0.00,,,0.11,Wunderground v.1.15,2013-07-29 14:10:00,
2013-07-29 10:20:00,60.8,59.9,30.03,East,83,1.0,1.0,97,0.00,,,0.11,Wunderground v.1.15,2013-07-29 14:20:00,
2013-07-29 10:30:00,61.1,60.0,30.02,East,86,0.0,0.0,96,0.00,,,0.11,Wunderground v.1.15,2013-07-29 14:30:00,
2013-07-29 10:40:00,61.1,60.0,30.03,East,86,0.0,0.0,96,0.00,,,0.11,Wunderground v.1.15,2013-07-29 14:40:00,
2013-07-29 10:50:00,60.9,59.8,30.04,East,86,0.0,0.0,96,0.00,,,0.11,Wunderground v.1.15,2013-07-29 14:50:00,
2013-07-29 11:10:00,61.0,59.9,30.03,ENE,60,0.0,0.0,96,0.00,,,0.11,Wunderground v.1.15,2013-07-29 15:10:00,
2013-07-29 11:20:00,61.2,60.1,30.03,ENE,60,0.0,0.0,96,0.00,,,0.11,Wunderground v.1.15,2013-07-29 15:20:00,
2013-07-29 11:30:00,61.3,60.2,30.02,ENE,69,0.0,0.0,96,0.00,,,0.11,Wunderground v.1.15,2013-07-29 15:30:00,
2013-07-29 11:40:00,61.3,60.2,30.02,WSW,240,0.0,2.0,96,0.00,,,0.11,Wunderground v.1.15,2013-07-29 15:40:00,
2013-07-29 11:50:00,61.2,60.1,30.02,SE,128,0.0,1.0,96,0.00,,,0.11,Wunderground v.1.15,2013-07-29 15:50:00,
2013-07-29 12:00:00,61.3,60.2,30.02,SSE,157,0.0,0.0,96,0.00,,,0.11,Wunderground v.1.15,2013-07-29 16:00:00,
2013-07-29 12:10:00,61.3,59.9,30.02,SSE,147,0.0,0.0,95,0.00,,,0.11,Wunderground v.1.15,2013-07-29 16:10:00,
2013-07-29 12:20:00,61.3,59.9,30.02,East,92,0.0,0.0,95,0.00,,,0.11,Wunderground v.1.15,2013-07-29 16:20:00,
2013-07-29 12:30:00,61.5,60.1,30.02,East,100,0.0,0.0,95,0.00,,,0.11,Wunderground v.1.15,2013-07-29 16:30:00,
2013-07-29 12:40:00,61.8,60.6,30.02,SSW,201,0.0,0.0,96,0.00,,,0.11,Wunderground v.1.15,2013-07-29 16:40:00,
2013-07-29 12:50:00,62.2,60.8,30.02,SSW,200,0.0,0.0,95,0.00,,,0.11,Wunderground v.1.15,2013-07-29 16:50:00,
2013-07-29 13:00:00,62.3,60.8,30.02,ENE,74,0.0,0.0,95,0.00,,,0.11,Wunderground v.1.15,2013-07-29 17:00:00,
2013-07-29 13:10:00,62.7,61.2,30.02,East,82,0.0,0.0,95,0.00,,,0.11,Wunderground v.1.15,2013-07-29 17:10:00,
2013-07-29 13:20:00,62.8,61.0,30.02,South,179,0.0,0.0,94,0.00,,,0.11,Wunderground v.1.15,2013-07-29 17:20:00,
2013-07-29 13:40:00,63.4,61.3,30.02,SE,138,0.0,0.0,93,0.00,,,0.11,Wunderground v.1.15,2013-07-29 17:40:00,
2013-07-29 13:50:00,63.1,61.0,30.02,South,186,0.0,0.0,93,0.00,,,0.11,Wunderground v.1.15,2013-07-29 17:50:00,
2013-07-29 14:00:00,63.0,60.9,30.02,South,186,0.0,0.0,93,0.00,,,0.11,Wunderground v.1.15,2013-07-29 18:00:00,
2013-07-29 14:10:00,63.0,61.2,30.02,South,186,0.0,0.0,94,0.00,,,0.11,Wunderground v.1.15,2013-07-29 18:10:00,
2013-07-29 14:20:00,63.0,61.2,30.02,South,186,0.0,0.0,94,0.00,,,0.11,Wunderground v.1.15,2013-07-29 18:20:00,
2013-07-29 14:40:00,63.3,61.5,30.02,South,186,0.0,0.0,94,0.00,,,0.11,Wunderground v.1.15,2013-07-29 18:40:00,
2013-07-29 14:50:00,63.5,61.7,30.02,South,186,0.0,0.0,94,0.00,,,0.11,Wunderground v.1.15,2013-07-29 18:50:00,
2013-07-29 15:00:00,63.8,61.7,30.02,South,186,0.0,0.0,93,0.00,,,0.11,Wunderground v.1.15,2013-07-29 19:00:00,
2013-07-29 15:10:00,64.0,61.9,30.02,South,186,0.0,0.0,93,0.00,,,0.11,Wunderground v.1.15,2013-07-29 19:10:00,
2013-07-29 15:20:00,64.3,62.2,30.02,South,186,0.0,0.0,93,0.00,,,0.11,Wunderground v.1.15,2013-07-29 19:20:00,
2013-07-29 15:40:00,64.5,62.1,30.01,SSE,162,0.0,0.0,92,0.00,,,0.11,Wunderground v.1.15,2013-07-29 19:40:00,
2013-07-29 15:50:00,64.7,62.6,30.02,SSE,162,0.0,0.0,93,0.00,,,0.11,Wunderground v.1.15,2013-07-29 19:50:00,
2013-07-29 16:00:00,64.8,62.7,30.01,SSE,163,0.0,0.0,93,0.00,,,0.11,Wunderground v.1.15,2013-07-29 20:00:00,
2013-07-29 16:10:00,64.6,62.2,30.01,East,94,0.0,0.0,92,0.00,,,0.11,Wunderground v.1.15,2013-07-29 20:10:00,
2013-07-29 16:30:00,64.9,62.5,30.01,ESE,103,0.0,0.0,92,0.00,,,0.11,Wunderground v.1.15,2013-07-29 20:30:00,
2013-07-29 16:40:00,65.1,63.0,30.01,ESE,102,0.0,0.0,93,0.00,,,0.11,Wunderground v.1.15,2013-07-29 20:40:00,
2013-07-29 16:50:00,65.5,62.8,30.01,East,99,0.0,1.0,91,0.00,,,0.11,Wunderground v.1.15,2013-07-29 20:50:00,
2013-07-29 17:00:00,65.9,63.5,30.01,East,100,0.0,0.0,92,0.00,,,0.11,Wunderground v.1.15,2013-07-29 21:00:00,
2013-07-29 17:10:00,66.4,63.7,30.01,ENE,63,1.0,1.0,91,0.00,,,0.11,Wunderground v.1.15,2013-07-29 21:10:00,
2013-07-29 17:40:00,66.2,63.5,30.01,SSW,209,0.0,0.0,91,0.00,,,0.11,Wunderground v.1.15,2013-07-29 21:40:00,
2013-07-29 17:50:00,66.3,63.6,30.01,SSW,204,0.0,0.0,91,0.00,,,0.11,Wunderground v.1.15,2013-07-29 21:50:00,
2013-07-29 18:00:00,66.3,63.6,30.01,SSW,204,0.0,0.0,91,0.00,,,0.11,Wunderground v.1.15,2013-07-29 22:00:00,
2013-07-29 18:10:00,66.0,63.3,30.01,SSW,204,0.0,0.0,91,0.00,,,0.11,Wunderground v.1.15,2013-07-29 22:10:00,
2013-07-29 18:40:00,65.2,63.1,30.01,SSW,200,0.0,0.0,93,0.00,,,0.11,Wunderground v.1.15,2013-07-29 22:40:00,
2013-07-29 18:50:00,65.1,63.3,30.01,SSW,199,0.0,0.0,94,0.00,,,0.11,Wunderground v.1.15,2013-07-29 22:50:00,
2013-07-29 19:00:00,65.1,63.3,30.00,SSW,200,0.0,0.0,94,0.00,,,0.11,Wunderground v.1.15,2013-07-29 23:00:00,
2013-07-29 19:10:00,64.9,63.1,30.01,SSW,200,0.0,0.0,94,0.00,,,0.11,Wunderground v.1.15,2013-07-29 23:10:00,
2013-07-29 19:20:00,64.9,63.4,30.02,SSW,199,0.0,0.0,95,0.00,,,0.11,Wunderground v.1.15,2013-07-29 23:20:00,
2013-07-29 19:30:00,64.9,63.4,30.02,SSW,200,0.0,0.0,95,0.00,,,0.11,Wunderground v.1.15,2013-07-29 23:30:00,
2013-07-29 19:40:00,64.8,63.3,30.00,East,86,1.0,1.0,95,0.00,,,0.11,Wunderground v.1.15,2013-07-29 23:40:00,
2013-07-29 19:50:00,64.6,63.1,30.01,SSE,155,0.0,0.0,95,0.00,,,0.11,Wunderground v.1.15,2013-07-29 23:50:00,
2013-07-29 20:10:00,64.5,63.3,30.01,NNE,15,0.0,2.0,96,0.08,,,0.14,Wunderground v.1.15,2013-07-30 00:10:00,
2013-07-29 20:20:00,64.5,63.3,30.01,NNE,14,0.0,0.0,96,0.04,,,0.14,Wunderground v.1.15,2013-07-30 00:20:00,
2013-07-29 20:30:00,64.4,63.2,30.02,NNE,14,0.0,0.0,96,0.00,,,0.15,Wunderground v.1.15,2013-07-30 00:30:00,
2013-07-29 20:40:00,64.5,63.3,30.02,NNE,14,0.0,0.0,96,0.00,,,0.15,Wunderground v.1.15,2013-07-30 00:40:00,
2013-07-29 20:50:00,64.4,63.2,30.03,NNE,14,0.0,0.0,96,0.00,,,0.15,Wunderground v.1.15,2013-07-30 00:50:00,
2013-07-29 21:10:00,64.3,63.1,30.03,NNE,14,0.0,0.0,96,0.00,,,0.15,Wunderground v.1.15,2013-07-30 01:10:00,
2013-07-29 21:20:00,64.3,63.1,30.03,NNE,14,0.0,0.0,96,0.00,,,0.15,Wunderground v.1.15,2013-07-30 01:20:00,
2013-07-29 21:30:00,64.2,63.0,30.03,NNE,14,0.0,0.0,96,0.00,,,0.15,Wunderground v.1.15,2013-07-30 01:30:00,
2013-07-29 21:40:00,64.3,63.4,30.04,NNE,14,0.0,0.0,97,0.00,,,0.15,Wunderground v.1.15,2013-07-30 01:40:00,
2013-07-29 21:50:00,64.2,63.0,30.03,NNE,14,0.0,0.0,96,0.00,,,0.15,Wunderground v.1.15,2013-07-30 01:50:00,
2013-07-29 22:00:00,63.7,62.5,30.03,NNE,14,0.0,0.0,96,0.00,,,0.15,Wunderground v.1.15,2013-07-30 02:00:00,
2013-07-29 22:10:00,63.1,61.9,30.03,NNE,14,0.0,0.0,96,0.00,,,0.15,Wunderground v.1.15,2013-07-30 02:10:00,
2013-07-29 22:20:00,62.5,61.3,30.03,NNE,14,0.0,0.0,96,0.00,,,0.15,Wunderground v.1.15,2013-07-30 02:20:00,
2013-07-29 22:30:00,62.2,61.0,30.03,NNE,14,0.0,0.0,96,0.00,,,0.15,Wunderground v.1.15,2013-07-30 02:30:00,
2013-07-29 22:40:00,62.1,60.9,30.03,NNE,14,0.0,0.0,96,0.00,,,0.15,Wunderground v.1.15,2013-07-30 02:40:00,
2013-07-29 23:00:00,61.6,60.7,30.02,NNE,14,0.0,0.0,97,0.00,,,0.15,Wunderground v.1.15,2013-07-30 03:00:00,
2013-07-29 23:10:00,61.4,60.5,30.02,NNE,14,0.0,0.0,97,0.00,,,0.15,Wunderground v.1.15,2013-07-30 03:10:00,
2013-07-29 23:20:00,61.2,60.3,30.02,NNE,14,0.0,0.0,97,0.00,,,0.15,Wunderground v.1.15,2013-07-30 03:20:00,
2013-07-29 23:40:00,61.6,60.7,30.03,NNE,14,0.0,0.0,97,0.00,,,0.15,Wunderground v.1.15,2013-07-30 03:40:00,
2013-07-29 23:50:00,62.0,61.1,30.02,NNE,14,0.0,0.0,97,0.00,,,0.15,Wunderground v.1.15,2013-07-30 03:50:00,